AO-07 1 07530U 74089B 15302.86650304 -.00000045 00000-0 -93937-5 0 9993 2 07530 101.5403 274.5919 0012365 41.6616 12.9088 12.53617436874138 FO-29 1 24278U 96046B 15302.06650076 -.00000004 00000-0 28921-4 0 9990 2 24278 98.5603 252.8628 0351402 83.8166 330.3330 13.53058344948132 SO-33 1 25509U 98061B 15301.90544684 .00000274 00000-0 40662-4 0 9990 2 25509 031.4317 213.2600 0347530 165.8869 195.1753 14.30086334889100 RS-22 1 27939U 03042A 15302.79899537 .00000664 00000-0 12897-3 0 9993 2 27939 97.8562 98.8481 0012708 325.4213 34.6169 14.66194607645913 HO-68 1 36122U 09072B 15302.77350854 -.00000059 00000-0 -43517-4 0 9992 2 36122 100.1771 342.6818 0007579 165.4892 194.6443 13.16330043282162 AO-73 1 39444U 13066AE 15302.46399585 .00001310 00000-0 17223-3 0 9993 2 39444 97.7153 0.2109 0060667 58.6529 302.0601 14.80566410103281 EO-79 1 40025U 14033R 15302.76933761 .00001460 00000-0 16706-3 0 9999 2 40025 97.9400 203.1481 0014217 101.6637 258.6175 14.87472816 73798 XW-2A 1 40903U 15049E 15302.87158745 .00006192 00000-0 19191-3 0 9993 2 40903 97.4533 310.5361 0015460 239.3852 241.1988 15.33689672 6061 XW-2C 1 40906U 15049H 15302.91251255 .00003326 00000-0 19490-3 0 9999 2 40906 97.4556 310.1544 0017545 112.4541 294.8901 15.12349774 6030 LILACSAT-2 1 40908U 15049K 15302.87391297 .00001923 00000-0 11607-3 0 9990 2 40908 97.4616 310.1166 0018260 106.9998 13.7021 15.11768716 6028 XW-2E 1 40909U 15049L 15302.85253652 .00005272 00000-0 30386-3 0 9997 2 40909 97.4550 310.1116 0016764 115.4790 6.0684 15.12696499 6022 UO-11 1 14781U 84021B 15302.75514830 .00000540 00000-0 73581-4 0 9997 2 14781 97.7848 356.4098 0008450 1.5658 358.5581 14.82552200701960 AO-16 1 20439U 90005D 15302.39176800 .00000109 00000-0 56322-4 0 9999 2 20439 98.5507 236.6718 0011774 120.8111 351.4913 14.32579908345951 LO-19 1 20442U 90005G 15302.77689909 .00000091 00000-0 49292-4 0 9992 2 20442 98.5214 236.1996 0012851 108.4279 251.8304 14.32769674346215 AO-27 1 22825U 93061C 15301.85543962 .00000082 00000-0 49414-4 0 9996 2 22825 98.7255 252.1029 0007345 279.6044 133.5127 14.29912463152044 IO-26 1 22826U 93061D 15302.08182512 .00000094 00000-0 53464-4 0 9996 2 22826 98.7198 252.4809 0007834 269.0446 90.9839 14.30232420152228 GO-32 1 25397U 98043D 15302.84245118 .00000039 00000-0 35800-4 0 9996 2 25397 98.5364 249.1628 0000625 358.8705 54.2754 14.23566229898950 NO-44 1 26931U 01043C 15302.33644201 .00000096 00000-0 68945-4 0 9994 2 26931 67.0513 191.0418 0006527 277.2330 82.8029 14.30353907734988 SO-50 1 27607U 02058C 15302.09406350 .00000447 00000-0 83797-4 0 9998 2 27607 64.5539 149.8696 0082734 262.7174 96.4519 14.74894612691031 CO-55 1 27844U 03031E 15302.87363694 .00000201 00000-0 11094-3 0 9990 2 27844 98.6957 309.4863 0008618 272.0799 87.9392 14.21863716639570 CO-57 1 27848U 03031J 15302.02410421 .00000164 00000-0 94795-4 0 9990 2 27848 98.7055 308.6254 0008553 283.6356 137.6639 14.21501867639364 AO-51 1 28375U 04025K 15301.84260205 .00000174 00000-0 64577-4 0 9998 2 28375 98.3043 238.5181 0081528 286.2910 72.9324 14.41712129595743 CP3 1 31129U 07012N 15302.90397425 .00000745 00000-0 16974-3 0 9992 2 31129 97.9989 262.9589 0094939 253.9010 168.4206 14.56013706452724 CO-65 1 32785U 08021C 15302.21874752 .00001099 00000-0 12795-3 0 9999 2 32785 97.6337 340.7521 0013008 350.6391 51.8791 14.87148375406158 PRISM 1 33493U 09002B 15302.88409122 .00003739 00000-0 35674-3 0 9998 2 33493 98.2391 146.8515 0014689 248.0347 111.9261 14.93918925366683 SOHLA-1 1 33496U 09002E 15302.40527435 .00000371 00000-0 68160-4 0 9993 2 33496 98.2308 71.5820 0007610 97.1297 298.8579 14.71455086362919 TISAT-1 1 36799U 10035E 15302.84644991 .00002492 00000-0 27053-3 0 9996 2 36799 98.0218 44.8719 0013968 123.1324 357.3075 14.89014053286999 STUDSAT 1 36801U 10035G 15302.86720454 .00020826 00000-0 10751-2 0 9998 2 36801 98.0751 70.2995 0005793 44.6976 315.4721 15.16338812288359 ALMASAT-1 1 38078U 12006B 15302.20856304 .00031290 33648-5 51488-3 0 9997 2 38078 69.4517 260.7165 0444501 70.7931 294.0757 14.86735920194904 CUBEBUG-1 1 39153U 13018D 15302.81908554 .00001191 00000-0 16608-3 0 9991 2 39153 98.0119 26.7764 0017369 173.9508 186.1916 14.79485977135385 ESTCUBE-1 1 39161U 13021C 15302.72389721 .00001043 00000-0 17667-3 0 9995 2 39161 98.0650 24.4415 0008456 245.1584 114.8738 14.71363726133023 DUCHIFAT-1 1 40021U 14033M 15302.70816928 .00001944 00000-0 21484-3 0 9990 2 40021 97.9420 203.6579 0014913 101.3337 258.9556 14.88510453 73816 NANOSATCBR1 1 40024U 14033Q 15302.67143847 .00001943 00000-0 21732-3 0 9997 2 40024 97.9402 203.2839 0014099 100.9146 259.3658 14.88031161 73791 DTUSAT-2 1 40030U 14033W 15302.69386397 .00001527 00000-0 17608-3 0 9990 2 40030 97.9385 202.7111 0013701 95.7817 264.4961 14.87102685 73760 ANTELSAT 1 40034U 14033AA 15302.69265475 .00001347 00000-0 21165-3 0 9990 2 40034 97.9262 191.6656 0060937 49.0474 311.5983 14.72971980 73092 MET-2/21 1 22782U 93055A 15302.64219178 .00000035 00000-0 18200-4 0 9995 2 22782 82.5469 136.9894 0021425 305.9882 117.0724 13.83777724119198 OKEAN-4 1 23317U 94066A 15302.84030273 .00000800 00000-0 86672-4 0 9990 2 23317 82.5360 318.9294 0018637 241.1358 247.2388 14.86877958137319 NOAA-14 1 23455U 94089A 15302.50805057 .00000029 00000-0 37820-4 0 9995 2 23455 98.7442 21.1434 0010375 61.2586 59.0735 14.14056493 74517 NOAA-15 1 25338U 98030A 15302.55699836 .00000081 00000-0 53218-4 0 9995 2 25338 98.7786 301.3263 0011360 134.3568 225.8544 14.25671384907981 RESURS 1 25394U 98043A 15302.86412777 .00000002 00000-0 19220-4 0 9990 2 25394 98.4829 253.1955 0000520 187.9215 228.7578 14.24459468899456 FENGYUN1 1 25730U 99025A 15302.86980505 .00000500 00000-0 28814-3 0 9995 2 25730 98.9544 267.7785 0020537 115.3723 274.0232 14.13674920848084 OKEAN-0 1 25860U 99039A 15302.54516855 .00000524 00000-0 83368-4 0 9994 2 25860 98.1126 270.9549 0000884 95.6795 19.2035 14.76174357875800 NOAA-16 1 26536U 00055A 15302.48367534 .00000049 00000-0 50349-4 0 9991 2 26536 98.9283 8.2371 0010080 207.9068 152.1565 14.13112551778624 NOAA-17 1 27453U 02032A 15302.55169818 .00000025 00000-0 28460-4 0 9993 2 27453 98.3551 281.9915 0012267 143.8850 216.3161 14.24905087693790 NOAA-18 1 28654U 05018A 15302.53416436 .00000047 00000-0 50886-4 0 9994 2 28654 99.1927 298.5146 0013563 306.8180 53.1746 14.12242962538031 NOAA-19 1 33591U 09005A 15302.59222571 .00000189 00000-0 12808-3 0 9999 2 33591 99.0066 252.8936 0014409 147.6828 212.5228 14.11994558346453 HUBBLE 1 20580U 90037B 15302.54111166 .00001955 00000-0 11319-3 0 9998 2 20580 28.4708 347.9199 0003099 229.7726 130.2623 15.07818645200109 ISS 1 25544U 98067A 15302.87262005 .00009799 00000-0 15193-3 0 9997 2 25544 51.6441 131.8732 0006687 90.3807 47.6338 15.54685754968994 CO-58 1 28895U 05043F 15302.18762292 .00000700 00000-0 14518-3 0 9991 2 28895 97.8216 122.9907 0015978 230.3936 129.5857 14.62946923533186 FALCON 1 30776U 07006E 15302.89267296 .00009238 00000-0 35023-3 0 9994 2 30776 35.4288 235.6147 0002034 304.6311 101.7934 15.26181644476875 MAST 1 31126U 07012K 15302.13280359 .00000447 00000-0 10619-3 0 9990 2 31126 97.9792 264.2146 0089549 237.7586 182.5080 14.56187472452983 CAPE1 1 31130U 07012P 15302.43499122 .00000700 00000-0 16114-3 0 9996 2 31130 98.0006 261.9409 0095645 257.5610 101.4873 14.55674058452414 COMPASS 1 32787U 08021E 15302.83262294 .00001781 00000-0 18443-3 0 9995 2 32787 97.6353 346.2951 0012152 331.8475 28.2086 14.91231105406579 AAUSAT2 1 32788U 08021F 15302.12662370 .00002187 00000-0 21919-3 0 9990 2 32788 97.6361 347.3576 0011505 330.1395 29.9167 14.92326646406572 DO-64 1 32789U 08021G 15302.15284995 .00004362 00000-0 34517-3 0 9992 2 32789 97.6426 0.3646 0008255 322.4374 90.1492 15.01104719407172 CO-66 1 32791U 08021J 15302.15823254 .00001575 00000-0 17217-3 0 9993 2 32791 97.6354 343.0764 0013191 341.9794 18.0954 14.89164594406252 RS-30 1 32953U 08025A 15302.64687903 .00000010 00000-0 -13620-7 0 9992 2 32953 82.5018 250.6117 0019011 143.0150 217.2248 12.43064569337319 METEOR-M 1 35865U 09049A 15302.69004023 .00000032 00000-0 33205-4 0 9996 2 35865 98.4859 338.1157 0003574 88.4108 19.7414 14.22052245317327 RS-38 1 35869U 09049E 15302.67725882 .00000045 00000-0 39073-4 0 9994 2 35869 98.4780 337.6675 0005546 82.1474 278.0317 14.22314271317378 JUGNU 1 37839U 11058B 15301.89110677 .00000388 00000-0 65404-4 0 9996 2 37839 019.9605 111.9401 0018999 079.7701 066.9879 14.12497341209031 SRMSAT 1 37841U 11058D 15301.95102311 .00000373 00000-0 60203-4 0 9998 2 37841 019.9708 141.0086 0011831 001.5531 138.5241 14.10504717208765 RAX-2 1 37853U 11061D 15302.37060881 .00006819 00000-0 41158-3 0 9995 2 37853 101.6988 219.4186 0191282 43.0337 318.5650 14.97295783217176 AUBIESAT 1 37854U 11061E 15302.34951983 .00007891 00000-0 46122-3 0 9992 2 37854 101.6892 223.5688 0181950 36.7723 324.5808 14.99488627217314 HRBE 1 37855U 11061F 15302.73312868 .00009178 00000-0 52180-3 0 9990 2 37855 101.6974 222.3885 0196801 38.6757 322.8358 14.98344019217294 HORYU-2 1 38340U 12025D 15302.14470525 .00001352 00000-0 21079-3 0 9990 2 38340 98.3300 275.6683 0012742 35.5382 324.6672 14.74583904185270 RS-40 1 38735U 12041C 15302.65662158 .00000040 00000-0 21992-3 0 9994 2 38735 82.4766 336.1393 0015527 246.1844 113.7605 12.42570355147614 PROITERES 1 38756U 12047B 15302.84230077 .00000759 00000-0 11802-3 0 9991 2 38756 98.2265 44.4613 0011169 224.8455 135.1837 14.75968133168867 BEESAT-3 1 39134U 13015E 15302.73888804 .00006086 00000-0 34596-3 0 9997 2 39134 64.8730 346.5898 0022894 236.7308 123.1623 15.13569732139055 BEESAT-2 1 39136U 13015G 15302.42027209 .00004615 00000-0 27898-3 0 9992 2 39136 64.8737 351.1788 0023090 234.9418 124.9540 15.11694431138942 ZACUBE-1 1 39417U 13066B 15302.82065528 .00001084 00000-0 14558-3 0 9996 2 39417 97.7145 0.1916 0061355 58.6817 302.0382 14.79984357104540 TRITON-1 1 39427U 13066M 15302.19180004 .00000842 00000-0 14404-3 0 9995 2 39427 97.6990 344.9590 0116840 99.1168 262.3278 14.66860141103512 DELFIN3XT 1 39428U 13066N 15302.16868406 .00001430 00000-0 24186-3 0 9994 2 39428 97.7004 343.0247 0125059 104.8663 256.6432 14.65739184103367 GOMX-1 1 39430U 13066Q 15302.77580167 .00001028 00000-0 19737-3 0 9998 2 39430 97.6957 336.0923 0154196 125.2878 236.2819 14.58268749102995 LO-74 1 39440U 13066AA 15302.68807592 .00000983 00000-0 14624-3 0 9992 2 39440 97.7082 354.2555 0083085 73.4260 287.6055 14.74780206104153 PUCPSAT-1 1 39442U 13066AC 15302.16843846 .00001723 00000-0 18703-3 0 9994 2 39442 97.7264 9.0576 0033714 42.5413 317.8407 14.89018078103801 SPROUT 1 39770U 14029E 15302.35942434 .00002764 00000-0 33573-3 0 9990 2 39770 97.8738 37.3965 0010664 120.4879 239.7408 14.84296417 77532 POPSAT-HIP1 1 40028U 14033U 15302.88669776 .00001625 00000-0 18583-3 0 9995 2 40028 97.9432 203.3741 0015488 98.3573 261.9388 14.87347205 73807 EO-80 1 40032U 14033Y 15302.70926375 .00001548 00000-0 17870-3 0 9994 2 40032 97.9393 202.7378 0013676 95.9718 264.3056 14.87030772 73760 VELOX-1 1 40057U 14034E 15302.83536389 .00001940 00000-0 28818-3 0 9998 2 40057 98.2086 23.1132 0011593 162.7753 197.3833 14.76170542 71743 DAURIA DX 1 1 40071U 14037C 15302.89507934 .00000876 00000-0 12167-3 0 9994 2 40071 98.3471 19.7847 0008757 160.6908 199.4616 14.80557528 70726 UKUBE-1 1 40074U 14037F 15302.89501961 .00001905 00000-0 24421-3 0 9991 2 40074 98.3492 21.0135 0004980 161.4221 198.7147 14.82533121 70792 HODOYOSHI-1 1 40299U 14070B 15302.86873346 .00003332 00000-0 15590-3 0 9996 2 40299 97.4496 22.7173 0013730 30.0482 105.6800 15.20366421 54276 CHUBUSAT-1 1 40300U 14070C 15302.90462324 .00003983 00000-0 19536-3 0 9990 2 40300 97.4460 21.6416 0022754 28.5587 99.6578 15.18465947 54210 QSAT-EOS 1 40301U 14070D 15302.90392352 .00007175 00000-0 34622-3 0 9994 2 40301 97.4415 20.8696 0031871 28.1202 98.7811 15.18532373 54175 TSUBAME 1 40302U 14070E 15302.89309572 .00004513 00000-0 24772-3 0 9993 2 40302 97.4389 18.8141 0043244 34.2101 94.6878 15.13837535 54048 FIREBIRD FU3 1 40377U 15003B 15302.70631178 .00009661 00000-0 46369-3 0 9997 2 40377 99.1029 1.1392 0153301 172.1621 188.2053 15.09296273 40827 FIREBIRD FU4 1 40378U 15003C 15302.83618429 .00009837 00000-0 47152-3 0 9992 2 40378 99.1029 1.3015 0153597 171.6758 188.7070 15.09296399 40849 GRIFEX 1 40379U 15003D 15302.75032765 .00006115 00000-0 30257-3 0 9991 2 40379 99.1034 0.9308 0155634 173.7634 186.5576 15.08250640 40829 LAMBDA-SAT 1 40458U 98067GB 15136.30676273 .20783109 12527-4 14817-2 0 9995 2 40458 051.6075 233.7697 0010355 318.5347 043.1720 16.39926603 21161 NO-84 1 40654U 15025X 15302.39139039 .00022975 00000-0 55639-3 0 01695 2 40654 054.9973 356.7793 0231311 218.3430 140.0691 15.17925572024528 NO-83 1 40655U 15025X 15302.43335850 .00033619 00000-0 78469-3 0 01772 2 40655 054.9956 355.6965 0224560 218.9427 139.4966 15.19812102024544 DEORBITSAIL 1 40719U 15032E 15302.39323613 .00001903 00000-0 29107-3 0 9998 2 40719 98.0389 190.7944 0015499 261.7801 98.1650 14.74852028 16318 NUDT-PHONESAT 1 40900U 15049B 15302.89343006 .00008990 00000-0 50024-3 0 9996 2 40900 97.4491 310.1705 0017145 132.8382 345.3439 15.13751908 6042 XW-2D 1 40907U 15049J 15302.91363755 .00003389 00000-0 19879-3 0 9999 2 40907 97.4522 310.1343 0016944 110.9374 295.4262 15.12303598 6031 XW-2F 1 40910U 15049M 15302.91530255 .00004920 00000-0 28726-3 0 9997 2 40910 97.4548 310.1457 0018191 109.9972 287.8575 15.12239263 5923 XW-2B 1 40911U 15049N 15302.79158601 .00003594 00000-0 21047-3 0 9990 2 40911 97.4565 310.0408 0016799 111.3568 353.3034 15.12328948 5915 DCBB 1 40912U 15049P 15302.88455043 .00006023 00000-0 33386-3 0 9990 2 40912 97.4570 310.2240 0018942 109.2732 9.1742 15.14000891 5939 TW-1C 1 40926U 15051B 15302.66470873 .00015693 00000-0 53067-3 0 9993 2 40926 97.3055 337.6109 0016956 151.5110 325.4470 15.30573069 5270 TW-1A 1 40928U 15051D 15302.66242150 .00007927 00000-0 27060-3 0 9995 2 40928 97.3008 337.5892 0015400 160.6700 321.8576 15.30475775 5279 IO-86 1 40931U 15052B 15299.13416183 .00001099 00000-0 64600-4 0 9992 2 40931 6.0016 190.8863 0013518 32.4459 327.6511 14.76362171 4133 AAUSat-5 1 40948U 98067GZ 15302.75460729 .00061574 00000-0 80910-3 0 9990 2 40948 51.6401 132.1277 0007132 100.3636 259.8160 15.57880330 3766 GomX-3 1 40949U 98067HA 15302.75915525 .00046054 00000-0 62227-3 0 9997 2 40949 51.6406 132.1570 0007798 100.1578 260.0293 15.57253710 3766 LQSat 1 40958U 15057A 15302.84547256 .00000444 00000-0 77379-4 0 9995 2 40958 98.0395 15.4993 0018281 170.5289 189.6235 14.72727589 3330 AO-85 1 40967U 15058D 15302.30036689 .00001904 00000-0 21334-3 0 00240 2 40967 064.7795 228.7545 0217878 275.5719 236.2101 14.74335309002925 /EX